FENGYUN1
1 25730U 99025A   06048.56279852 -.00000224  00000-0 -99819-4 0  6531
2 25730 098.6192 045.6679 0015026 118.9365 241.3326 14.11805432349138
OKEAN-0
1 25860U 99039A   06047.66421571  .00000052  00000-0  15341-4 0 06723
2 25860 097.7418 067.5717 0001536 094.3968 265.7423 14.73337588354006
NOAA-16
1 26536U 00055A   06048.48984915 -.00000164  00000-0 -64146-4 0  7523
2 26536 099.0513 013.7951 0011224 095.7342 264.5109 14.12314953278688
NOAA-17
1 27453U 02032A   06048.42095947  .00000041  00000-0  36661-4 0  7782
2 27453 098.6339 122.9072 0012550 066.1429 294.1039 14.23751083189735
NOAA-18
1 28654U 05018A   06048.36286546 -.00000143  00000-0 -55839-4 0  3647
2 28654 098.7766 354.2824 0013786 198.2230 161.8456 14.10929616 38481
HUBBLE
1 20580U 90037B   06048.59806359  .00000449  00000-0  22268-4 0  5488
2 20580 028.4678 109.4275 0003426 352.0720 007.9822 14.99965501667123
UARS
1 21701U 91063B   06047.93754288  .00002783  00000-0  61491-4 0 06928
2 21701 056.9791 250.1725 0105079 342.0539 017.6772 15.42162436790741
PO-34
1 25520U 98064B   06048.85080275  .00000496  00000-0  14938-4 0  3952
2 25520 028.4580 109.4409 0005419 022.4783 337.6053 15.16612889403916
ISS
1 25544U 98067A   06049.02712141  .00012045  00000-0  84843-4 0  3714
2 25544 051.6424 080.3397 0007350 293.7440 149.0993 15.74566456414382
OO-38
1 26063U 00004C   06048.29144326  .00000003  00000-0  21218-4 0  5470
2 26063 100.1900 317.7609 0037266 084.7015 275.8400 14.35753446317461
NO-45
1 26932U 01043D   06047.74640924  .00000214  00000-0  11571-3 0 02463
2 26932 067.0596 317.5912 0007063 286.7984 073.2347 14.29516965228753
UWE-1
1 28892U 05043C   06048.27633955  .00000172  00000-0  46109-4 0  3751
2 28892 098.1790 308.3573 0017419 181.8826 178.2311 14.59305152 16487
XI-V
1 28895U 05043F   06048.34056846  .00000121  00000-0  35401-4 0  3588
2 28895 098.1813 308.4594 0017835 181.8513 178.2618 14.59360787 16378
NCUBE2
1 28897U 05043H   06046.68509518  .00000122  00000-0  35365-4 0 00334
2 28897 098.1758 306.8260 0016832 190.0267 170.0603 14.59513351008400
AO-54
1 28933U 05035C   06048.37291263  .00026151  00000-0  17190-3 0   187
2 28933 051.6436 083.6446 0007795 298.5706 061.4901 15.75480477  2111
